| time (UTC) | temp F | wind direction | speed MPH | gust MPH | rain 1hr in | rain 24hr in | rain mn in | humidity % | barometer mb |
| 20260504022057 | 63 | 35 | 0.0 | 2.0 | 0.00 | 0.04 | 0.00 | 33 | 1012.6 |
| 20260504021559 | 63 | 129 | 0.0 | 0.0 | 0.00 | 0.04 | 0.00 | 34 | 1012.6 |
| 20260504021100 | 64 | 6 | 1.0 | 3.0 | 0.00 | 0.04 | 0.00 | 33 | 1012.5 |
| 20260504015601 | 64 | 357 | 3.0 | 3.0 | 0.00 | 0.04 | 0.00 | 32 | 1012.7 |
| 20260504015102 | 64 | 91 | 3.0 | 2.0 | 0.00 | 0.04 | 0.00 | 31 | 1012.6 |
| 20260504014603 | 64 | 27 | 2.0 | 3.0 | 0.00 | 0.04 | 0.00 | 32 | 1012.7 |
| 20260504014104 | 64 | 18 | 0.0 | 1.0 | 0.00 | 0.04 | 0.00 | 33 | 1012.7 |
| 20260504013605 | 64 | 65 | 0.0 | 0.0 | 0.00 | 0.04 | 0.00 | 32 | 1012.7 |
| 20260504013103 | 64 | 8 | 0.0 | 0.0 | 0.00 | 0.04 | 0.00 | 32 | 1012.7 |
| 20260504012604 | 65 | 25 | 0.0 | 0.0 | 0.00 | 0.04 | 0.00 | 31 | 1012.7 |
| 20260504012106 | 65 | 31 | 1.0 | 0.0 | 0.00 | 0.04 | 0.00 | 30 | 1012.7 |
| 20260504011607 | 66 | 158 | 0.0 | 4.0 | 0.00 | 0.04 | 0.00 | 30 | 1012.7 |
| 20260504010606 | 67 | 183 | 1.0 | 1.0 | 0.00 | 0.04 | 0.00 | 28 | 1012.8 |
| 20260504010128 | 67 | 65 | 5.0 | 3.0 | 0.00 | 0.04 | 0.00 | 28 | 1012.8 |
| 20260504004611 | 67 | 14 | 3.0 | 4.0 | 0.00 | 0.04 | 0.00 | 29 | 1012.8 |
| 20260504004109 | 66 | 343 | 4.0 | 4.0 | 0.00 | 0.04 | 0.00 | 30 | 1013.0 |
| 20260504003610 | 67 | 145 | 2.0 | 2.0 | 0.00 | 0.04 | 0.00 | 29 | 1012.8 |
| 20260504003111 | 67 | 41 | 2.0 | 3.0 | 0.00 | 0.04 | 0.00 | 28 | 1012.8 |
| 20260504001612 | 68 | 176 | 2.0 | 4.0 | 0.00 | 0.04 | 0.00 | 24 | 1012.8 |
| 20260504000115 | 68 | 14 | 1.0 | 1.0 | 0.00 | 0.04 | 0.00 | 26 | 1012.8 |
| 20260503233617 | 69 | 162 | 5.0 | 3.0 | 0.00 | 0.04 | 0.00 | 26 | 1013.0 |
| 20260503233118 | 69 | 35 | 4.0 | 3.0 | 0.00 | 0.04 | 0.00 | 26 | 1013.0 |
| 20260503232617 | 69 | 113 | 3.0 | 3.0 | 0.00 | 0.04 | 0.00 | 26 | 1013.0 |
| 20260503232118 | 69 | 68 | 5.0 | 1.0 | 0.00 | 0.04 | 0.00 | 25 | 1013.0 |
| 20260503231619 | 69 | 15 | 4.0 | 2.0 | 0.00 | 0.04 | 0.00 | 26 | 1013.0 |
| 20260503230119 | 69 | 195 | 2.0 | 1.0 | 0.00 | 0.04 | 0.00 | 26 | 1013.2 |
| 20260503225620 | 69 | 45 | 5.0 | 5.0 | 0.00 | 0.04 | 0.00 | 27 | 1013.3 |
| 20260503225121 | 69 | 204 | 4.0 | 3.0 | 0.00 | 0.04 | 0.00 | 27 | 1013.3 |
| 20260503224622 | 69 | 238 | 3.0 | 2.0 | 0.00 | 0.04 | 0.00 | 26 | 1013.4 |
| 20260503222624 | 70 | 70 | 6.0 | 6.0 | 0.00 | 0.04 | 0.00 | 26 | 1013.6 |
| 20260503222125 | 69 | 311 | 3.0 | 3.0 | 0.00 | 0.04 | 0.00 | 25 | 1013.7 |
| 20260503221626 | 69 | 10 | 4.0 | 3.0 | 0.00 | 0.04 | 0.00 | 27 | 1013.7 |
| 20260503221124 | 68 | 129 | 1.0 | 3.0 | 0.00 | 0.04 | 0.00 | 26 | 1013.8 |
| 20260503220126 | 69 | 120 | 2.0 | 8.0 | 0.00 | 0.04 | 0.00 | 26 | 1014.0 |
| 20260503215627 | 70 | 115 | 3.0 | 9.0 | 0.00 | 0.04 | 0.00 | 29 | 1013.9 |
| 20260503214627 | 70 | 333 | 6.0 | 4.0 | 0.00 | 0.04 | 0.00 | 26 | 1013.9 |
| 20260503214128 | 70 | 224 | 1.0 | 5.0 | 0.00 | 0.04 | 0.00 | 26 | 1013.9 |
| 20260503213629 | 70 | 217 | 4.0 | 3.0 | 0.00 | 0.04 | 0.00 | 26 | 1014.0 |
| 20260503213130 | 69 | 132 | 4.0 | 1.0 | 0.00 | 0.04 | 0.00 | 28 | 1014.0 |
| 20260503212631 | 69 | 51 | 3.0 | 4.0 | 0.00 | 0.04 | 0.00 | 29 | 1014.1 |
| 20260503212130 | 68 | 38 | 4.0 | 2.0 | 0.00 | 0.04 | 0.00 | 29 | 1014.1 |
| 20260503211132 | 69 | 49 | 2.0 | 6.0 | 0.00 | 0.04 | 0.00 | 29 | 1014.1 |
| 20260503210634 | 69 | 359 | 1.0 | 3.0 | 0.00 | 0.04 | 0.00 | 30 | 1014.1 |
| 20260503210134 | 70 | 28 | 3.0 | 2.0 | 0.00 | 0.04 | 0.00 | 26 | 1014.1 |
| 20260503205632 | 70 | 153 | 5.0 | 2.0 | 0.00 | 0.04 | 0.00 | 28 | 1014.3 |
| 20260503205133 | 70 | 200 | 3.0 | 1.0 | 0.00 | 0.04 | 0.00 | 28 | 1014.3 |
| 20260503204634 | 70 | 304 | 0.0 | 3.0 | 0.00 | 0.04 | 0.00 | 29 | 1014.3 |
| 20260503204135 | 69 | 101 | 5.0 | 6.0 | 0.00 | 0.04 | 0.00 | 29 | 1014.4 |
| 20260503203637 | 69 | 179 | 5.0 | 4.0 | 0.00 | 0.04 | 0.00 | 28 | 1014.4 |
| 20260503203135 | 69 | 160 | 2.0 | 1.0 | 0.00 | 0.04 | 0.00 | 29 | 1014.4 |
| 20260503202636 | 68 | 59 | 3.0 | 1.0 | 0.00 | 0.04 | 0.00 | 30 | 1014.5 |
| 20260503201638 | 68 | 218 | 3.0 | 5.0 | 0.00 | 0.04 | 0.00 | 30 | 1014.6 |
| 20260503201139 | 68 | 124 | 3.0 | 1.0 | 0.00 | 0.04 | 0.00 | 30 | 1014.5 |
| 20260503200638 | 68 | 176 | 4.0 | 8.0 | 0.00 | 0.04 | 0.00 | 29 | 1014.7 |
| 20260503195640 | 68 | 215 | 3.0 | 5.0 | 0.00 | 0.04 | 0.00 | 33 | 1014.7 |
| 20260503195141 | 68 | 4 | 4.0 | 4.0 | 0.00 | 0.04 | 0.00 | 32 | 1014.7 |
| 20260503194642 | 68 | 160 | 2.0 | 2.0 | 0.00 | 0.04 | 0.00 | 33 | 1014.7 |
| 20260503194143 | 68 | 117 | 5.0 | 9.0 | 0.00 | 0.04 | 0.00 | 34 | 1014.9 |
| 20260503193641 | 67 | 129 | 3.0 | 1.0 | 0.00 | 0.04 | 0.00 | 36 | 1014.9 |
| 20260503193143 | 67 | 197 | 3.0 | 1.0 | 0.00 | 0.04 | 0.00 | 34 | 1015.0 |
| 20260503192645 | 67 | 86 | 4.0 | 5.0 | 0.00 | 0.04 | 0.00 | 34 | 1014.9 |
| 20260503192145 | 67 | 231 | 4.0 | 5.0 | 0.00 | 0.04 | 0.00 | 36 | 1015.0 |
| 20260503191643 | 67 | 27 | 4.0 | 3.0 | 0.00 | 0.04 | 0.00 | 36 | 1015.0 |
| 20260503191144 | 67 | 204 | 5.0 | 4.0 | 0.00 | 0.04 | 0.00 | 36 | 1015.0 |
| 20260503185146 | 66 | 173 | 1.0 | 3.0 | 0.00 | 0.04 | 0.00 | 38 | 1015.0 |
| 20260503184148 | 65 | 117 | 5.0 | 6.0 | 0.00 | 0.04 | 0.00 | 39 | 1015.1 |
| 20260503183649 | 66 | 141 | 4.0 | 4.0 | 0.00 | 0.04 | 0.00 | 38 | 1015.1 |
| 20260503183150 | 65 | 115 | 3.0 | 0.0 | 0.00 | 0.04 | 0.00 | 39 | 1015.2 |
| 20260503182149 | 64 | 46 | 6.0 | 3.0 | 0.00 | 0.04 | 0.00 | 40 | 1015.1 |
| 20260503181650 | 64 | 68 | 5.0 | 2.0 | 0.00 | 0.04 | 0.00 | 39 | 1015.1 |
| 20260503181151 | 64 | 110 | 4.0 | 3.0 | 0.00 | 0.04 | 0.00 | 41 | 1015.1 |
| 20260503175152 | 63 | 86 | 4.0 | 4.0 | 0.00 | 0.04 | 0.00 | 42 | 1015.1 |
| 20260503174653 | 63 | 87 | 3.0 | 6.0 | 0.00 | 0.04 | 0.00 | 41 | 1015.0 |
| 20260503174154 | 63 | 114 | 4.0 | 10.0 | 0.00 | 0.04 | 0.00 | 41 | 1015.0 |
| 20260503173153 | 63 | 224 | 2.0 | 6.0 | 0.00 | 0.04 | 0.00 | 43 | 1014.9 |
| 20260503172654 | 63 | 65 | 3.0 | 2.0 | 0.00 | 0.04 | 0.00 | 41 | 1014.9 |
| 20260503171656 | 63 | 143 | 6.0 | 2.0 | 0.00 | 0.04 | 0.00 | 40 | 1014.7 |
| 20260503170656 | 63 | 114 | 4.0 | 4.0 | 0.00 | 0.04 | 0.00 | 41 | 1014.7 |
| 20260503170248 | 62 | 127 | 2.0 | 3.0 | 0.00 | 0.04 | 0.00 | 41 | 1014.7 |
| 20260503160203 | 60 | 77 | 4.0 | 2.0 | 0.00 | 0.04 | 0.00 | 45 | 1014.5 |
| 20260503150705 | 58 | 201 | 3.0 | 9.0 | 0.00 | 0.04 | 0.00 | 51 | 1014.5 |
| 20260503150206 | 57 | 169 | 2.0 | 2.0 | 0.00 | 0.04 | 0.00 | 49 | 1014.4 |
| 20260503140212 | 51 | 217 | 4.0 | 3.0 | 0.00 | 0.04 | 0.00 | 60 | 1014.0 |
| 20260503131216 | 49 | 207 | 2.0 | 1.0 | 0.00 | 0.04 | 0.00 | 64 | 1013.9 |
| 20260503130717 | 48 | 187 | 1.0 | 2.0 | 0.00 | 0.04 | 0.00 | 65 | 1013.9 |
| 20260503130215 | 48 | 150 | 0.0 | 0.0 | 0.00 | 0.04 | 0.00 | 66 | 1013.9 |
| 20260503120221 | 48 | 193 | 1.0 | 1.0 | 0.00 | 0.04 | 0.00 | 64 | 1013.9 |
| 20260503110727 | 50 | 149 | 2.0 | 2.0 | 0.00 | 0.04 | 0.00 | 59 | 1014.3 |
| 20260503110228 | 50 | 179 | 1.0 | 2.0 | 0.00 | 0.04 | 0.00 | 58 | 1014.3 |
| 20260503090237 | 46 | 136 | 0.0 | 2.0 | 0.00 | 0.04 | 0.00 | 65 | 1014.4 |
| 20260503072245 | 48 | 163 | 0.0 | 0.0 | 0.00 | 0.04 | 0.00 | 67 | 1015.1 |
| 20260503071746 | 48 | 163 | 0.0 | 0.0 | 0.00 | 0.04 | 0.00 | 67 | 1015.1 |
| 20260503070746 | 48 | 163 | 0.0 | 0.0 | 0.00 | 0.04 | 0.00 | 67 | 1015.1 |
| 20260503070247 | 48 | 163 | 0.0 | 0.0 | 0.00 | 0.04 | 0.00 | 68 | 1015.1 |
| 20260503060253 | 49 | 179 | 1.0 | 1.0 | 0.00 | 0.04 | 0.00 | 65 | 1015.1 |
| 20260503054754 | 49 | 211 | 0.0 | 0.0 | 0.00 | 0.00 | 0.04 | 65 | 1015.2 |
| 20260503054255 | 49 | 211 | 0.0 | 0.0 | 0.00 | 0.00 | 0.04 | 66 | 1015.2 |
| 20260503053756 | 48 | 211 | 0.0 | 0.0 | 0.00 | 0.00 | 0.04 | 65 | 1015.1 |
| 20260503053254 | 48 | 211 | 0.0 | 0.0 | 0.00 | 0.00 | 0.04 | 67 | 1015.1 |
| 20260503052755 | 49 | 211 | 0.0 | 0.0 | 0.00 | 0.00 | 0.04 | 67 | 1015.2 |
| 20260503051757 | 49 | 211 | 0.0 | 0.0 | 0.00 | 0.00 | 0.04 | 67 | 1015.1 |
| 20260503051349 | 49 | 211 | 0.0 | 0.0 | 0.00 | 0.00 | 0.04 | 67 | 1015.2 |
| 20260503051258 | 49 | 211 | 0.0 | 0.0 | 0.00 | 0.00 | 0.04 | 67 | 1015.2 |
| 20260503050756 | 49 | 211 | 1.0 | 2.0 | 0.00 | 0.00 | 0.04 | 67 | 1015.3 |
| 20260503045759 | 49 | 212 | 0.0 | 1.0 | 0.00 | 0.00 | 0.04 | 68 | 1015.3 |
| 20260503045259 | 49 | 219 | 3.0 | 2.0 | 0.00 | 0.00 | 0.04 | 69 | 1015.3 |
| 20260503044800 | 49 | 212 | 2.0 | 2.0 | 0.00 | 0.00 | 0.04 | 69 | 1015.2 |
| 20260503044258 | 50 | 197 | 0.0 | 0.0 | 0.00 | 0.00 | 0.04 | 68 | 1015.2 |
| 20260503043800 | 50 | 195 | 2.0 | 1.0 | 0.00 | 0.00 | 0.04 | 68 | 1015.3 |
| 20260503043301 | 50 | 156 | 0.0 | 0.0 | 0.00 | 0.00 | 0.04 | 68 | 1015.2 |
| 20260503042304 | 51 | 156 | 0.0 | 0.0 | 0.00 | 0.00 | 0.04 | 68 | 1015.2 |
| 20260503041801 | 51 | 156 | 0.0 | 0.0 | 0.00 | 0.00 | 0.04 | 67 | 1015.1 |
| 20260503041302 | 51 | 156 | 0.0 | 0.0 | 0.00 | 0.00 | 0.04 | 65 | 1015.1 |
| 20260503035805 | 52 | 156 | 0.0 | 0.0 | 0.00 | 0.00 | 0.04 | 63 | 1015.2 |
| 20260503035304 | 53 | 200 | 1.0 | 2.0 | 0.00 | 0.00 | 0.04 | 62 | 1015.2 |
| 20260503034804 | 53 | 173 | 1.0 | 0.0 | 0.00 | 0.00 | 0.04 | 62 | 1015.2 |
| 20260503034305 | 53 | 150 | 2.0 | 0.0 | 0.00 | 0.00 | 0.04 | 62 | 1015.0 |
| 20260503033806 | 53 | 86 | 0.0 | 0.0 | 0.00 | 0.00 | 0.04 | 62 | 1014.7 |
| 20260503033307 | 53 | 222 | 1.0 | 3.0 | 0.00 | 0.00 | 0.04 | 61 | 1014.6 |
| 20260503032306 | 53 | 219 | 0.0 | 4.0 | 0.00 | 0.00 | 0.04 | 62 | 1014.4 |
| 20260503031807 | 52 | 191 | 4.0 | 3.0 | 0.00 | 0.00 | 0.04 | 64 | 1014.4 |
| 20260503031308 | 53 | 212 | 1.0 | 2.0 | 0.00 | 0.00 | 0.04 | 63 | 1014.4 |
| 20260503030308 | 53 | 63 | 0.0 | 0.0 | 0.00 | 0.00 | 0.04 | 62 | 1014.4 |
| 20260503025311 | 53 | 122 | 1.0 | 0.0 | 0.00 | 0.00 | 0.04 | 62 | 1014.4 |
| 20260503024811 | 53 | 149 | 0.0 | 0.0 | 0.00 | 0.00 | 0.04 | 61 | 1014.3 |
| 20260503024338 | 53 | 149 | 0.0 | 0.0 | 0.00 | 0.00 | 0.04 | 62 | 1014.3 |
| 20260503023311 | 54 | 114 | 0.0 | 0.0 | 0.00 | 0.00 | 0.04 | 61 | 1014.0 |
| 20260503022812 | 54 | 302 | 0.0 | 0.0 | 0.00 | 0.00 | 0.04 | 64 | 1014.1 |